When you browse on this site, cookies collect data to enhance your experience and personalize the content and advertising you see.
Visit our Privacy Policy to learn more. By continuing to use the site, you agree to this use of cookies and data.
  • en Suisse
  • Liste des pays
  • À 7 jours
  • Température de l'eau
  • Carte météo
  • Widgets météo
  • user-avatar
    Se connecter

    Météo par heure à Troickiy

    Ce jour, 22 Septembre, Dimanche

    Heure Température Précipitation Vent Pression Humidité
    00:00 +3°C° 0 mm 5 m/s 739 mmHg 76%
    01:00 +3°C° 0.4 mm 5 m/s 737 mmHg 81%
    02:00 +3°C° 0.4 mm 6 m/s 736 mmHg 86%
    03:00 +3°C° 0 mm 5 m/s 736 mmHg 91%
    04:00 +5°C° 0.3 mm 5 m/s 735 mmHg 92%
    05:00 +5°C° 0.3 mm 5 m/s 734 mmHg 92%
    06:00 +5°C° 0.3 mm 5 m/s 733 mmHg 93%
    07:00 +5°C° 0.1 mm 6 m/s 733 mmHg 90%
    08:00 +5°C° 0.1 mm 6 m/s 732 mmHg 86%
    09:00 +6°C° 0.1 mm 7 m/s 732 mmHg 83%
    10:00 +6°C° 0.2 mm 8 m/s 732 mmHg 82%
    11:00 +5°C° 0.2 mm 8 m/s 732 mmHg 82%
    12:00 +5°C° 0.2 mm 9 m/s 732 mmHg 81%
    13:00 +5°C° 0.3 mm 9 m/s 733 mmHg 75%
    14:00 +6°C° 0.3 mm 9 m/s 733 mmHg 68%
    15:00 +6°C° 0.3 mm 10 m/s 734 mmHg 62%
    16:00 +5°C° 0.1 mm 9 m/s 734 mmHg 66%
    17:00 +4°C° 0.1 mm 8 m/s 735 mmHg 69%
    18:00 +4°C° 0.1 mm 7 m/s 735 mmHg 72%
    19:00 +3°C° 0 mm 7 m/s 736 mmHg 75%
    20:00 +2°C° 0 mm 7 m/s 736 mmHg 77%
    21:00 +1°C° 0 mm 6 m/s 737 mmHg 80%
    22:00 +1°C° 0 mm 6 m/s 737 mmHg 82%
    23:00 +1°C° 0 mm 6 m/s 738 mmHg 84%

    Demain, 23 Septembre, Lundi

    Heure Température Précipitation Vent Pression Humidité
    00:00 -1°C° 0 mm 6 m/s 738 mmHg 85%
    01:00 -1°C° 0 mm 6 m/s 739 mmHg 87%
    02:00 0°C° 0 mm 5 m/s 740 mmHg 88%
    03:00 0°C° 0 mm 5 m/s 740 mmHg 90%
    04:00 0°C° 0 mm 5 m/s 741 mmHg 85%
    05:00 +1°C° 0 mm 5 m/s 741 mmHg 81%
    06:00 +1°C° 0 mm 5 m/s 742 mmHg 77%
    07:00 +2°C° 0 mm 5 m/s 742 mmHg 74%
    08:00 +2°C° 0 mm 6 m/s 743 mmHg 72%
    09:00 +2°C° 0 mm 6 m/s 743 mmHg 69%
    10:00 +3°C° 0 mm 6 m/s 743 mmHg 67%
    11:00 +4°C° 0 mm 6 m/s 744 mmHg 65%
    12:00 +5°C° 0 mm 6 m/s 744 mmHg 63%
    13:00 +5°C° 0 mm 6 m/s 744 mmHg 61%
    14:00 +7°C° 0 mm 6 m/s 744 mmHg 60%
    15:00 +7°C° 0 mm 6 m/s 744 mmHg 58%
    16:00 +5°C° 0 mm 6 m/s 744 mmHg 61%
    17:00 +6°C° 0 mm 5 m/s 745 mmHg 64%
    18:00 +5°C° 0 mm 4 m/s 745 mmHg 67%
    19:00 +4°C° 0 mm 4 m/s 745 mmHg 69%
    20:00 +3°C° 0 mm 4 m/s 745 mmHg 72%
    21:00 +2°C° 0 mm 3 m/s 745 mmHg 75%
    22:00 +2°C° 0 mm 3 m/s 746 mmHg 75%
    23:00 +1°C° 0 mm 3 m/s 746 mmHg 76%

    Après-demain, 24 Septembre, Mardi

    Heure Température Précipitation Vent Pression Humidité
    00:00 +2°C° 0 mm 2 m/s 746 mmHg 76%
    01:00 +1°C° 0 mm 3 m/s 746 mmHg 78%
    02:00 0°C° 0 mm 3 m/s 746 mmHg 80%
    03:00 0°C° 0 mm 3 m/s 746 mmHg 82%
    04:00 0°C° 0 mm 3 m/s 746 mmHg 84%
    05:00 0°C° 0 mm 3 m/s 746 mmHg 85%
    06:00 -1°C° 0 mm 3 m/s 746 mmHg 87%
    07:00 0°C° 0 mm 3 m/s 746 mmHg 83%
    08:00 +2°C° 0 mm 3 m/s 746 mmHg 79%
    09:00 +3°C° 0 mm 4 m/s 746 mmHg 75%
    10:00 +3°C° 0.1 mm 4 m/s 746 mmHg 74%
    11:00 +4°C° 0.1 mm 4 m/s 746 mmHg 72%
    12:00 +5°C° 0.1 mm 4 m/s 746 mmHg 71%
    13:00 +5°C° 0.1 mm 4 m/s 746 mmHg 68%
    14:00 +5°C° 0.1 mm 4 m/s 746 mmHg 65%
    15:00 +6°C° 0.1 mm 4 m/s 746 mmHg 63%
    16:00 +5°C° 0 mm 4 m/s 746 mmHg 66%
    17:00 +4°C° 0 mm 3 m/s 746 mmHg 68%
    18:00 +5°C° 0 mm 2 m/s 746 mmHg 71%
    19:00 +4°C° 0 mm 2 m/s 746 mmHg 75%
    20:00 +3°C° 0 mm 2 m/s 746 mmHg 79%
    21:00 +2°C° 0 mm 2 m/s 746 mmHg 82%
    22:00 +2°C° 0 mm 2 m/s 746 mmHg 84%
    23:00 +2°C° 0 mm 2 m/s 746 mmHg 86%

    25 Septembre, Mercredi

    Heure Température Précipitation Vent Pression Humidité
    00:00 +1°C° 0 mm 2 m/s 746 mmHg 87%
    01:00 +1°C° 0 mm 2 m/s 746 mmHg 89%
    02:00 +1°C° 0 mm 2 m/s 746 mmHg 90%
    03:00 -1°C° 0 mm 2 m/s 746 mmHg 92%
    04:00 -1°C° 0 mm 2 m/s 746 mmHg 92%
    05:00 -1°C° 0 mm 2 m/s 746 mmHg 92%
    06:00 -1°C° 0 mm 2 m/s 746 mmHg 92%
    07:00 +1°C° 0 mm 2 m/s 747 mmHg 85%
    08:00 +2°C° 0 mm 2 m/s 747 mmHg 78%
    09:00 +4°C° 0 mm 2 m/s 747 mmHg 72%
    10:00 +5°C° 0 mm 2 m/s 747 mmHg 68%
    11:00 +6°C° 0 mm 2 m/s 747 mmHg 64%
    12:00 +8°C° 0 mm 3 m/s 747 mmHg 60%
    13:00 +8°C° 0 mm 3 m/s 747 mmHg 57%
    14:00 +8°C° 0 mm 3 m/s 747 mmHg 55%
    15:00 +9°C° 0 mm 3 m/s 747 mmHg 52%
    16:00 +8°C° 0 mm 2 m/s 747 mmHg 57%
    17:00 +8°C° 0 mm 1 m/s 746 mmHg 61%
    18:00 +7°C° 0 mm 1 m/s 746 mmHg 65%
    19:00 +6°C° 0 mm 1 m/s 746 mmHg 68%
    20:00 +5°C° 0 mm 1 m/s 747 mmHg 70%
    21:00 +5°C° 0 mm 1 m/s 747 mmHg 73%
    22:00 +5°C° 0 mm 1 m/s 747 mmHg 75%
    23:00 +4°C° 0 mm 1 m/s 747 mmHg 76%

    26 Septembre, Jeudi

    Heure Température Précipitation Vent Pression Humidité
    00:00 +4°C° 0 mm 1 m/s 747 mmHg 78%
    01:00 +4°C° 0 mm 1 m/s 747 mmHg 77%
    02:00 +4°C° 0 mm 1 m/s 747 mmHg 76%
    03:00 +4°C° 0 mm 1 m/s 747 mmHg 76%
    04:00 +4°C° 0 mm 1 m/s 747 mmHg 77%
    05:00 +4°C° 0 mm 1 m/s 747 mmHg 77%
    06:00 +4°C° 0 mm 1 m/s 747 mmHg 78%
    07:00 +4°C° 0 mm 2 m/s 747 mmHg 73%
    08:00 +5°C° 0 mm 2 m/s 747 mmHg 69%
    09:00 +7°C° 0 mm 2 m/s 747 mmHg 64%
    10:00 +8°C° 0 mm 3 m/s 747 mmHg 60%
    11:00 +9°C° 0 mm 3 m/s 747 mmHg 55%
    12:00 +11°C° 0 mm 3 m/s 747 mmHg 51%
    13:00 +11°C° 0 mm 3 m/s 746 mmHg 50%
    14:00 +11°C° 0 mm 3 m/s 746 mmHg 49%
    15:00 +12°C° 0 mm 3 m/s 745 mmHg 48%
    16:00 +11°C° 0 mm 3 m/s 745 mmHg 51%
    17:00 +10°C° 0 mm 3 m/s 745 mmHg 55%
    18:00 +10°C° 0 mm 2 m/s 745 mmHg 59%
    19:00 +9°C° 0 mm 3 m/s 744 mmHg 58%
    20:00 +9°C° 0 mm 3 m/s 744 mmHg 58%
    21:00 +8°C° 0 mm 4 m/s 744 mmHg 57%
    22:00 +8°C° 0 mm 4 m/s 743 mmHg 55%
    23:00 +8°C° 0 mm 4 m/s 743 mmHg 54%

    27 Septembre, Vendredi

    Heure Température Précipitation Vent Pression Humidité
    00:00 +8°C° 0 mm 4 m/s 743 mmHg 52%
    01:00 +8°C° 0 mm 4 m/s 742 mmHg 52%
    02:00 +7°C° 0 mm 4 m/s 742 mmHg 53%
    03:00 +7°C° 0 mm 4 m/s 742 mmHg 53%
    04:00 +8°C° 0 mm 3 m/s 741 mmHg 54%
    05:00 +8°C° 0 mm 3 m/s 741 mmHg 55%
    06:00 +7°C° 0 mm 3 m/s 740 mmHg 56%
    07:00 +8°C° 0 mm 3 m/s 740 mmHg 58%
    08:00 +8°C° 0 mm 3 m/s 740 mmHg 60%
    09:00 +8°C° 0 mm 3 m/s 739 mmHg 62%
    10:00 +8°C° 0.2 mm 3 m/s 739 mmHg 66%
    11:00 +8°C° 0.2 mm 2 m/s 739 mmHg 70%
    12:00 +8°C° 0.2 mm 2 m/s 739 mmHg 75%
    13:00 +8°C° 0.4 mm 2 m/s 739 mmHg 79%
    14:00 +8°C° 0.4 mm 1 m/s 739 mmHg 83%
    15:00 +8°C° 0.4 mm 1 m/s 739 mmHg 88%
    16:00 +7°C° 0.5 mm 2 m/s 739 mmHg 89%
    17:00 +7°C° 0.5 mm 2 m/s 739 mmHg 90%
    18:00 +7°C° 0.5 mm 3 m/s 739 mmHg 92%
    19:00 +6°C° 0 mm 4 m/s 740 mmHg 91%
    20:00 +5°C° 0 mm 5 m/s 740 mmHg 90%
    21:00 +4°C° 0 mm 6 m/s 741 mmHg 89%
    22:00 +5°C° 0 mm 5 m/s 741 mmHg 89%
    23:00 +5°C° 0 mm 5 m/s 742 mmHg 89%
    Voir plus